Miami, FL

9:30 PM EDT on August 17, 2019 (GMT -0400)
Miami International

Weather History for KMIA - May, 2019

Change the Weather History Date:

Saturday, May 18, 2019

  Actual Average Record
Temperature  
Mean Temperature 81 °F 80 °F  
Max Temperature 88 °F 87 °F 95 °F (1989)
Min Temperature 73 °F 73 °F 62 °F (1950)
Degree Days  
Heating Degree Days 0 0  
Month to date heating degree days 0 0  
Since 1 July heating degree days 60 128  
Cooling Degree Days 16 15  
Month to date cooling degree days 304 253  
Year to date cooling degree days 1393 1146  
Growing Degree Days 30 (Base 50)    
Moisture  
Dew Point 68 °F    
Average Humidity 67    
Maximum Humidity 79    
Minimum Humidity 55    
Precipitation  
Precipitation 0.00 in 0.18 in 4.20 in (1972)
Month to date precipitation 4.59 2.43  
Year to date precipitation 13.19 12.44  
Snow  
Snow 0.00 in - - ()
Month to date snowfall 0.0  
Since 1 July snowfall 0.0  
Snow Depth 0.00 in    
Sea Level Pressure  
Sea Level Pressure 29.99 in    
Wind  
Wind Speed 10 mph (ENE)    
Max Wind Speed 20 mph    
Max Gust Speed 27 mph    
Visibility 10 miles    
Events      
T = Trace of Precipitation, MM = Missing Value Source: NWS Daily Summary

Daily Weather History Graph

Daily Weather History Graph

Search for Another Location

Airport or City:

Astronomy

May. 18, 2019 Rise Set
Actual Time 6:34 AM EDT 8:01 PM EDT
Civil Twilight 6:09 AM EDT 8:26 PM EDT
Nautical Twilight 5:39 AM EDT 8:56 PM EDT
Astronomical Twilight 5:08 AM EDT 9:27 PM EDT
Moon 8:00 PM EDT 6:30 AM EDT
Length of Visible Light 14h 17m
Length of Day
13h 27m
Full, 100% of the Moon is Illuminated
May 18
Full
May 18
Full
May 26
Last Quarter
Jun 3
New
Jun 10
First Quarter

Hourly Weather History & Observations

Time (EDT) Temp. Heat Index Dew Point Humidity Pressure Visibility Wind Dir Wind Speed Gust Speed Precip Events Conditions
12:53 AM 78.1 °F - 64.0 °F 62% 30.01 in 10.0 mi East 6.9 mph - N/A   Partly Cloudy
1:53 AM 77.0 °F - 64.9 °F 66% 29.99 in 10.0 mi Calm Calm - N/A   Partly Cloudy
2:53 AM 73.9 °F - 64.9 °F 73% 29.98 in 10.0 mi North 3.5 mph - N/A   Partly Cloudy
3:53 AM 73.9 °F - 66.0 °F 76% 29.98 in 10.0 mi Calm Calm - N/A   Partly Cloudy
4:53 AM 75.9 °F - 66.0 °F 71% 29.97 in 10.0 mi North 4.6 mph - N/A   Partly Cloudy
5:53 AM 75.0 °F - 66.9 °F 76% 29.99 in 10.0 mi North 4.6 mph - N/A   Partly Cloudy
6:53 AM 75.0 °F - 66.9 °F 76% 30.00 in 10.0 mi North 4.6 mph - N/A   Partly Cloudy
7:53 AM 78.1 °F - 68.0 °F 71% 30.01 in 10.0 mi NNE 3.5 mph - N/A   Partly Cloudy
8:53 AM 82.0 °F 84.9 °F 68.0 °F 62% 30.01 in 10.0 mi NE 6.9 mph - N/A   Partly Cloudy
9:53 AM 84.0 °F 87.8 °F 69.1 °F 61% 30.02 in 10.0 mi NE 8.1 mph - N/A   Scattered Clouds
10:53 AM 84.9 °F 88.8 °F 69.1 °F 59% 30.02 in 10.0 mi ENE 9.2 mph - N/A   Mostly Cloudy
11:53 AM 86.0 °F 90.1 °F 69.1 °F 57% 30.02 in 10.0 mi East 13.8 mph - N/A   Mostly Cloudy
12:53 PM 87.1 °F 92.0 °F 70.0 °F 57% 30.01 in 10.0 mi ENE 11.5 mph 21.9 mph N/A   Mostly Cloudy
1:53 PM 86.0 °F 90.7 °F 70.0 °F 59% 29.99 in 10.0 mi East 15.0 mph - N/A   Mostly Cloudy
2:53 PM 87.1 °F 91.3 °F 69.1 °F 55% 29.98 in 10.0 mi ENE 16.1 mph - N/A   Mostly Cloudy
3:53 PM 86.0 °F 90.1 °F 69.1 °F 57% 29.96 in 10.0 mi ENE 13.8 mph - N/A   Scattered Clouds
4:53 PM 84.0 °F 87.8 °F 69.1 °F 61% 29.95 in 10.0 mi East 16.1 mph - N/A   Mostly Cloudy
5:53 PM 84.0 °F 87.8 °F 69.1 °F 61% 29.97 in 10.0 mi East 12.7 mph 23.0 mph N/A   Mostly Cloudy
6:53 PM 82.0 °F 85.5 °F 69.1 °F 65% 29.97 in 10.0 mi East 16.1 mph - N/A   Mostly Cloudy
7:53 PM 81.0 °F 84.1 °F 69.1 °F 67% 29.98 in 10.0 mi ENE 12.7 mph - N/A   Mostly Cloudy
8:53 PM 81.0 °F 84.4 °F 70.0 °F 69% 29.99 in 10.0 mi East 17.3 mph - N/A   Mostly Cloudy
9:53 PM 81.0 °F 84.1 °F 69.1 °F 67% 30.00 in 10.0 mi East 13.8 mph - N/A   Overcast
10:53 PM 81.0 °F 84.1 °F 69.1 °F 67% 30.01 in 10.0 mi ENE 8.1 mph - N/A   Overcast
11:53 PM 81.0 °F 84.1 °F 69.1 °F 67% 30.01 in 10.0 mi East 11.5 mph - N/A   Mostly Cloudy